Wind_Speed
13 13 12 10 11 11 13 14 14 14 14 16 19 21 23 22 21 20 19 18 18 18 18 18 18 18 19 20 21 22 24 25 26 27 28 28 29 30 32 33 34 35 36 37
14 11 12 11 12 13 13 13 13 13 14 18 20 22 22 22 21 21 20 20 19 19 19 19 20 20 21 22 23 24 26 27 28 29 30 31 32 33 34 36 37 38 38 39
13 12 14 13 13 15 14 12 13 14 15 18 20 22 21 21 21 21 21 21 21 21 21 21 21 22 23 23 25 26 27 29 29 30 31 33 34 35 37 38 39 40 41 42
14 13 14 12 12 13 13 12 13 15 16 18 19 19 20 20 20 21 21 22 23 23 23 23 23 24 25 26 27 28 29 30 31 32 33 35 36 38 39 40 41 42 43 45
14 15 16 16 18 18 17 16 15 16 17 19 19 19 21 22 22 21 23 24 25 25 25 26 26 26 27 29 30 31 32 33 34 35 36 38 39 41 42 44 43 43 45 47
16 16 18 21 21 20 19 20 18 17 18 19 20 20 22 24 26 27 27 27 27 27 28 29 29 30 30 31 33 34 35 36 37 39 40 42 43 43 45 45 45 45 47 49
17 16 19 24 23 21 21 23 20 18 19 22 25 26 26 27 28 30 31 31 30 30 30 31 32 33 33 34 36 38 39 40 41 42 44 45 46 46 47 47 47 47 48 49
22 21 24 25 25 24 24 24 23 24 26 27 29 29 29 29 30 31 32 32 33 33 33 34 35 36 36 37 39 41 43 44 46 47 48 49 48 48 48 48 49 50 50 50
26 26 27 29 28 25 25 27 28 30 30 30 31 31 32 32 33 33 34 34 35 36 36 37 38 39 40 41 43 44 46 47 48 49 50 50 50 50 50 50 52 52 53 52
28 30 31 31 28 28 29 30 32 33 33 33 33 34 35 35 35 35 36 36 37 38 39 40 41 42 43 44 46 47 48 49 50 51 51 52 52 53 53 53 54 54 54 54
30 34 35 31 31 32 33 34 34 34 35 35 35 36 36 37 37 37 38 38 39 40 41 42 43 44 45 47 47 49 50 51 52 53 53 54 54 55 55 55 55 55 54 53
34 35 36 37 36 37 37 37 36 36 36 36 36 37 37 38 38 39 40 40 41 42 43 44 45 46 47 48 49 50 52 53 54 55 55 56 57 56 56 57 56 55 53 52
34 35 37 38 38 38 39 39 38 37 37 37 37 38 39 40 41 42 42 43 44 45 46 46 47 48 49 50 51 52 53 55 56 56 57 58 59 59 59 59 57 54 51 50
34 35 37 38 38 38 39 40 40 40 40 40 41 41 42 43 44 45 45 45 46 47 48 49 50 51 52 52 53 55 56 57 59 59 60 60 61 61 60 58 56 53 51 48
34 36 38 39 40 41 41 41 42 43 43 44 44 44 45 45 46 46 47 47 48 49 50 52 53 54 55 56 57 58 59 61 61 62 62 62 62 61 59 56 53 50 48 45
35 37 38 39 40 41 42 42 43 44 45 45 46 46 46 47 48 48 49 50 52 53 54 56 57 57 58 60 61 62 62 63 64 64 64 63 61 59 56 53 50 48 45 42
36 36 38 39 40 41 42 43 44 44 45 46 47 47 48 49 50 51 53 54 55 57 58 60 61 61 62 64 64 65 65 65 65 64 63 61 58 56 53 50 47 43 40 38
36 37 38 40 41 42 42 43 44 45 46 47 48 49 50 52 53 55 56 57 59 60 62 63 64 65 66 67 67 66 66 65 64 62 60 57 54 51 48 45 42 39 36 34
37 38 39 40 41 42 43 44 45 46 47 49 50 52 53 55 56 58 60 61 62 64 64 65 66 66 66 66 66 65 63 62 60 57 55 51 48 44 42 39 37 35 33 32
37 38 39 41 42 43 44 46 47 49 50 52 53 55 56 58 59 61 62 63 64 65 65 65 65 65 64 63 62 60 58 55 53 51 48 44 41 38 36 34 32 32 30 29
40 41 42 43 44 45 47 48 50 52 53 54 56 57 58 60 60 61 62 62 62 63 62 62 61 60 59 57 55 53 51 49 47 44 41 38 35 32 30 29 29 28 27 26
42 43 44 45 46 47 49 51 52 54 55 56 57 58 59 59 59 60 60 60 59 58 57 56 55 53 52 51 50 48 46 43 41 39 35 32 30 28 28 26 26 25 24 23
45 45 46 47 49 50 51 52 54 55 56 57 57 57 57 56 56 55 54 53 52 51 50 49 48 47 47 46 45 43 41 38 35 32 28 27 26 25 24 23 23 22 21 21
47 48 49 50 51 52 53 53 54 55 54 54 53 53 52 51 50 48 47 46 45 45 44 43 42 42 42 42 39 37 35 32 30 27 24 22 21 21 20 20 20 20 19 19
49 50 50 51 52 52 53 53 52 52 51 49 47 46 45 44 43 42 41 40 40 40 40 39 39 39 38 36 34 32 31 28 24 22 20 19 18 17 17 17 17 17 17 17
49 49 50 50 50 50 49 48 47 46 45 43 41 40 39 38 37 36 36 36 37 36 36 37 37 36 34 31 30 29 26 23 19 17 15 14 14 14 13 14 15 15 15 14
47 47 48 47 46 46 44 43 42 40 39 37 36 35 34 34 33 33 33 33 34 34 34 34 34 32 30 28 26 24 20 16 12 10 9 9 10 12 12 12 12 12 12 12
Wind_Direction
271 283 293 296 294 282 276 273 270 274 281 280 279 284 290 296 299 298 298 297 296 297 297 296 296 298 301 304 307 310 312 314 314 315 315 316 316 316 315 315 315 315 316 318
271 264 270 268 269 272 274 275 270 265 266 269 273 281 289 296 296 294 295 295 295 296 296 295 295 297 300 303 306 309 311 312 313 313 314 314 315 316 315 315 314 314 315 317
278 262 261 263 253 259 256 258 265 264 265 271 277 284 292 295 295 295 295 295 295 296 296 295 295 297 299 302 305 307 309 310 311 311 311 313 314 315 316 316 315 315 316 317
283 266 263 264 257 266 265 263 271 274 275 281 285 292 295 294 295 297 298 298 298 297 296 295 295 296 299 301 303 305 306 307 308 310 311 313 313 315 316 316 316 316 316 317
282 270 267 260 250 242 244 247 254 267 273 277 283 293 295 296 298 295 296 298 296 295 296 296 295 295 297 299 302 304 304 305 307 309 310 312 313 315 316 316 316 316 317 317
291 275 270 270 271 258 253 250 250 264 271 272 279 286 288 291 294 294 296 296 295 295 295 295 295 296 297 298 301 303 304 306 307 309 310 310 312 313 315 316 315 316 319 318
295 280 269 265 265 265 259 255 260 268 275 277 279 285 285 284 285 288 291 292 293 292 292 293 294 295 297 299 301 302 303 305 307 308 309 309 311 313 314 315 315 315 318 319
286 275 264 269 264 259 259 267 274 277 281 281 281 282 282 282 283 285 287 288 289 289 291 292 292 294 296 298 299 300 302 304 306 307 308 309 310 311 312 314 314 314 316 317
273 271 272 276 276 273 273 278 281 281 280 280 281 282 282 283 284 286 287 287 288 289 290 290 292 293 295 296 298 299 300 302 303 304 306 307 309 311 312 313 313 313 314 314
267 274 277 277 283 287 287 284 282 281 280 281 282 283 284 285 286 286 286 286 287 288 288 289 290 291 292 294 296 297 299 299 300 303 305 305 306 309 311 311 312 312 312 312
270 273 276 282 288 291 289 286 283 283 283 284 285 285 286 287 287 287 287 287 287 287 288 289 290 291 292 294 295 296 297 299 300 302 303 304 305 306 307 308 309 309 309 309
268 274 278 282 285 285 285 285 286 286 286 287 287 287 287 288 288 288 288 288 288 288 289 289 290 291 292 293 295 296 297 298 300 301 301 303 303 304 305 306 306 306 306 306
268 272 276 280 282 284 285 286 287 288 288 288 288 288 289 289 289 289 289 290 290 290 290 291 291 292 293 294 295 296 297 298 299 300 300 301 302 303 304 304 304 304 303 303
269 272 274 276 279 282 284 286 287 288 289 289 289 290 290 290 291 291 291 291 292 292 292 293 293 293 294 295 296 296 297 297 297 298 298 298 299 300 301 301 301 301 301 300
268 269 271 274 278 280 282 284 286 288 289 290 291 291 291 291 292 292 292 293 293 294 294 294 294 294 296 296 296 296 296 296 296 296 296 297 297 298 298 298 297 297 298 297
269 270 273 275 278 280 282 283 285 287 288 290 291 292 292 293 293 293 294 294 295 295 295 295 295 296 296 295 295 295 295 295 295 295 295 295 295 294 294 294 293 294 294 293
275 276 277 278 280 281 282 284 285 287 288 290 291 292 293 293 294 295 295 296 296 296 296 296 296 296 296 295 295 295 295 294 294 294 293 293 292 291 291 291 291 291 290 290
279 279 279 280 281 283 284 286 287 288 289 291 292 293 294 294 295 296 296 296 296 296 296 297 297 297 296 296 296 296 295 294 293 293 292 291 290 289 288 287 287 286 285 286
279 280 281 282 284 285 287 288 289 290 291 292 293 294 294 295 295 296 297 297 297 297 298 298 298 298 298 298 297 296 296 295 294 293 291 290 288 286 284 283 281 281 280 280
281 282 283 284 286 287 288 289 290 291 292 293 294 294 295 296 297 297 298 298 299 299 299 300 299 299 299 299 298 298 297 296 295 293 291 288 285 282 280 277 274 274 275 276
284 284 285 286 287 288 289 290 292 292 293 294 295 296 297 298 299 299 300 300 301 301 301 301 301 301 300 300 299 299 298 297 296 293 289 285 280 277 276 271 267 267 268 271
286 286 287 288 289 290 291 292 293 294 295 296 297 298 299 300 301 301 302 302 303 303 303 303 303 303 302 302 302 301 300 298 296 293 287 280 273 269 268 264 262 261 263 267
287 288 289 290 291 292 293 294 295 296 297 298 299 300 300 301 302 303 303 304 304 305 305 306 306 306 305 305 304 303 301 299 296 291 285 278 270 265 262 257 257 258 258 264
288 289 290 291 292 293 294 295 296 297 298 299 300 300 301 302 303 304 305 306 306 307 308 309 310 310 309 308 306 304 302 300 295 289 284 277 268 261 255 253 254 255 256 261
288 290 291 292 293 294 295 296 297 298 299 300 301 302 303 303 305 306 307 308 309 310 310 312 313 313 312 310 309 308 306 300 294 288 279 270 262 255 250 249 251 254 255 259
289 291 292 293 294 295 296 296 297 298 300 301 302 302 303 304 305 307 308 309 311 312 312 314 315 315 314 312 312 313 310 305 298 290 281 267 255 248 243 243 247 249 251 254
291 292 293 294 295 296 297 297 298 299 300 300 301 301 302 304 306 308 310 311 312 313 315 316 317 318 317 316 317 318 315 311 303 296 285 270 257 247 241 241 244 243 243 249
Height
5856 5855 5854 5854 5856 5856 5856 5856 5856 5856 5854 5853 5851 5849 5848 5847 5845 5844 5842 5841 5840 5839 5837 5836 5835 5833 5831 5830 5828 5825 5823 5821 5818 5815 5812 5808 5805 5801 5797 5792 5788 5783 5778 5773
5851 5852 5852 5853 5854 5854 5853 5852 5852 5852 5851 5849 5847 5846 5845 5844 5842 5840 5839 5837 5836 5835 5833 5832 5830 5829 5827 5825 5822 5820 5817 5815 5812 5809 5805 5801 5798 5794 5789 5785 5780 5775 5770 5764
5847 5847 5847 5848 5848 5848 5848 5847 5847 5847 5846 5844 5843 5842 5841 5839 5838 5836 5834 5833 5831 5830 5829 5827 5825 5823 5821 5819 5817 5814 5811 5808 5805 5802 5798 5794 5790 5786 5781 5776 5771 5766 5761 5755
5843 5843 5843 5845 5842 5843 5842 5842 5842 5842 5841 5840 5839 5838 5836 5834 5833 5831 5830 5828 5826 5825 5823 5822 5820 5817 5815 5813 5810 5807 5804 5801 5798 5794 5790 5786 5781 5777 5772 5767 5761 5756 5751 5745
5839 5838 5838 5838 5837 5836 5837 5837 5837 5836 5836 5835 5834 5833 5830 5828 5827 5826 5825 5823 5821 5819 5817 5815 5813 5811 5808 5806 5803 5800 5797 5793 5790 5786 5782 5777 5772 5767 5762 5756 5751 5746 5740 5735
5834 5833 5833 5833 5830 5830 5831 5829 5828 5827 5829 5829 5828 5828 5826 5823 5821 5819 5817 5817 5815 5812 5810 5808 5805 5803 5800 5798 5794 5791 5788 5784 5781 5777 5772 5767 5762 5757 5751 5746 5740 5735 5729 5724
5828 5828 5828 5826 5825 5825 5826 5822 5821 5820 5822 5822 5821 5821 5820 5818 5816 5814 5812 5810 5808 5805 5803 5800 5797 5795 5792 5789 5785 5782 5778 5774 5770 5766 5762 5757 5752 5746 5741 5735 5730 5724 5718 5712
5822 5821 5821 5819 5819 5818 5817 5816 5814 5814 5815 5815 5814 5813 5811 5810 5809 5807 5805 5802 5800 5796 5794 5792 5789 5786 5783 5780 5776 5772 5768 5764 5760 5755 5750 5746 5741 5736 5730 5724 5718 5712 5706 5701
5816 5814 5813 5812 5811 5810 5811 5811 5810 5809 5809 5808 5806 5805 5803 5802 5800 5798 5796 5793 5791 5788 5785 5782 5779 5776 5773 5770 5766 5762 5758 5753 5749 5744 5739 5734 5729 5724 5718 5712 5706 5700 5695 5689
5807 5803 5803 5802 5803 5804 5804 5804 5803 5802 5801 5799 5798 5796 5794 5792 5790 5788 5786 5783 5781 5778 5775 5772 5769 5766 5763 5759 5755 5751 5747 5742 5737 5732 5727 5722 5717 5712 5706 5700 5694 5688 5682 5676
5801 5799 5796 5794 5796 5796 5796 5795 5794 5793 5791 5790 5788 5786 5784 5782 5780 5778 5775 5773 5770 5768 5765 5762 5758 5755 5751 5747 5744 5739 5735 5730 5725 5720 5715 5710 5705 5700 5694 5688 5682 5676 5670 5663
5796 5793 5791 5789 5790 5788 5787 5786 5785 5783 5782 5780 5778 5776 5774 5771 5769 5767 5764 5762 5759 5756 5753 5750 5746 5743 5739 5735 5731 5726 5722 5717 5711 5706 5701 5696 5691 5686 5681 5675 5670 5664 5658 5652
5788 5786 5784 5783 5781 5780 5778 5776 5775 5774 5772 5770 5768 5766 5763 5760 5758 5755 5753 5750 5747 5744 5740 5737 5733 5729 5725 5722 5717 5713 5707 5702 5697 5691 5686 5681 5675 5670 5665 5661 5656 5651 5646 5640
5780 5778 5776 5774 5773 5772 5769 5767 5765 5763 5762 5759 5757 5755 5752 5749 5746 5743 5740 5737 5734 5730 5727 5723 5719 5715 5711 5707 5703 5698 5692 5687 5681 5676 5671 5666 5660 5655 5650 5645 5641 5636 5632 5628
5770 5769 5767 5766 5764 5762 5760 5758 5755 5753 5751 5748 5746 5743 5740 5737 5734 5731 5727 5724 5721 5717 5712 5708 5703 5699 5696 5691 5686 5681 5676 5670 5665 5660 5654 5649 5644 5639 5634 5630 5625 5621 5617 5614
5759 5758 5757 5756 5755 5753 5750 5748 5746 5743 5740 5737 5734 5731 5728 5725 5721 5718 5714 5710 5706 5702 5697 5692 5688 5683 5679 5673 5668 5663 5658 5653 5647 5642 5637 5631 5626 5622 5618 5614 5610 5607 5604 5601
5750 5749 5748 5746 5744 5742 5740 5737 5735 5732 5729 5726 5722 5719 5715 5711 5708 5703 5700 5695 5690 5686 5680 5675 5671 5666 5660 5654 5649 5644 5639 5634 5628 5622 5617 5613 5608 5604 5601 5598 5595 5593 5591 5589
5740 5738 5737 5735 5733 5731 5728 5726 5723 5720 5717 5713 5710 5706 5702 5697 5693 5689 5684 5679 5674 5669 5663 5658 5652 5646 5640 5634 5629 5623 5617 5612 5607 5602 5597 5593 5590 5587 5585 5583 5581 5579 5578 5576
5729 5728 5726 5724 5721 5719 5716 5714 5710 5707 5703 5700 5696 5692 5687 5683 5678 5673 5668 5662 5657 5651 5645 5639 5632 5626 5620 5614 5608 5602 5596 5591 5586 5581 5577 5574 5572 5570 5569 5568 5567 5567 5566 5565
5719 5717 5715 5712 5710 5707 5704 5701 5697 5694 5690 5686 5681 5677 5672 5667 5662 5657 5651 5645 5638 5632 5626 5619 5612 5606 5600 5594 5587 5581 5576 5571 5567 5563 5559 5557 5555 5555 5554 5554 5554 5555 5554 5554
5708 5705 5703 5700 5697 5694 5691 5687 5684 5679 5675 5671 5666 5661 5656 5651 5645 5639 5633 5627 5621 5614 5607 5600 5593 5587 5581 5574 5569 5563 5558 5553 5549 5546 5543 5541 5541 5541 5541 5542 5543 5543 5544 5544
5695 5693 5690 5687 5684 5681 5677 5673 5669 5665 5660 5655 5650 5645 5639 5634 5628 5622 5615 5609 5603 5596 5590 5583 5577 5570 5563 5558 5552 5547 5543 5538 5534 5531 5529 5528 5528 5529 5530 5531 5532 5534 5535 5536
5682 5680 5677 5674 5671 5667 5663 5659 5654 5650 5645 5640 5635 5629 5623 5618 5612 5606 5601 5594 5588 5581 5575 5569 5563 5556 5550 5544 5539 5534 5529 5525 5521 5519 5517 5516 5517 5518 5520 5521 5523 5525 5527 5528
5669 5666 5663 5659 5656 5652 5648 5644 5639 5634 5630 5624 5619 5614 5608 5603 5598 5592 5586 5581 5575 5569 5563 5557 5551 5545 5539 5533 5527 5522 5517 5514 5511 5509 5507 5507 5508 5510 5512 5514 5516 5518 5520 5521
5655 5652 5648 5645 5641 5637 5633 5628 5624 5619 5615 5610 5605 5600 5595 5590 5585 5581 5575 5570 5565 5559 5553 5547 5541 5535 5529 5523 5518 5513 5508 5505 5502 5500 5499 5500 5501 5503 5505 5507 5510 5512 5514 5515
5641 5638 5634 5630 5626 5622 5618 5614 5610 5605 5601 5597 5593 5588 5584 5579 5575 5571 5566 5561 5556 5550 5544 5539 5533 5527 5521 5515 5511 5506 5502 5498 5496 5495 5495 5495 5497 5499 5501 5503 5505 5507 5509 5510
5627 5623 5619 5616 5612 5608 5605 5601 5597 5593 5589 5586 5582 5578 5574 5570 5566 5562 5558 5553 5548 5542 5537 5531 5526 5520 5515 5510 5505 5501 5497 5495 5493 5492 5492 5493 5494 5496 5498 5500 5501 5503 5505 5506